[[{"header":{"parameterUnit":"m.s-1","parameterCategory":1,"la1":30.2991,"la2":30.254,"lo1":-89.0895,"lo2":-89.0444,"dy":0.0017,"dx":0.0017,"nx":28,"ny":28,"refTime":"2023-09-09T21:00:00:Z","depth":0,"parameterNumber":2,"parameterNumberName":"U-component_of_WINDS"},"data":[0,0,0,0,0,0,0,0,0,0,0,0,0,0,0,0,0,0,0,0,0,0,0,0,0,0,0,0,0,0,0,0,0,0,0,0,0,0,0,0,0,0,0,0,0,0,0,0,0,0,0,0,0,0,0,0,0,0,0.5349,0.5348,0,0.5282,0.5281,0.528,0.5285,0.5286,0.5287,0.5288,0.5214,0.5211,0.5208,0,0,0,0,0,0,0,0,0,0,0,0,0,0.5474,0.5472,0.5349,0.5348,0.5347,0.5282,0.5281,0.528,0.5285,0.5286,0.5287,0.5289,0.5215,0.5211,0.5208,0,0,0,0,0,0,0,0,0,0,0,0,0,0.5415,0.5471,0.5349,0.5342,0.534,0.5282,0.5281,0.528,0.5285,0.5286,0.5288,0.5289,0.5216,0.5211,0.5207,0.515,0,0,0.5194,0.5192,0,0,0,0,0,0,0,0,0.5418,0.541,0.5344,0.5342,0.5341,0.5294,0.5298,0.5236,0.5284,0.5306,0.5288,0.529,0.5239,0.5232,0.5216,0.5146,0.5143,0.5193,0.5191,0.5189,0.5188,0,0,0,0,0,0,0,0.5422,0.5413,0.5322,0.5343,0.5341,0.534,0.5333,0.5286,0.5264,0.5304,0.5304,0.5297,0.5238,0.5221,0.5215,0.5142,0.5193,0.519,0.5187,0.5185,0.502,0.5018,0,0,0,0,0,0,0.5429,0.5416,0.5324,0.532,0.5384,0.5336,0.5329,0.5307,0.5265,0.526,0.5295,0.5297,0.5227,0.522,0.5212,0.514,0.5189,0.5185,0.5182,0.5022,0.5019,0.5017,0,0,0,0,0,0,0.5431,0.5421,0.5327,0.5368,0.5356,0.5333,0.5308,0.5305,0.5288,0.5258,0.5254,0.5282,0.5228,0.5218,0.5165,0.5138,0.5183,0.5179,0.5024,0.5021,0.5018,0.4997,0,0,0,0,0,0,0.5435,0.5422,0.5401,0.5368,0.5354,0.5283,0.5307,0.5303,0.5281,0.5282,0.5245,0.524,0.5229,0.5172,0.5161,0.5133,0.5175,0.5026,0.5022,0.5019,0.5,0.4994,0.4989,0,0,0,0,0,0.544,0.5396,0.54,0.5388,0.5328,0.5281,0.5273,0.5263,0.5279,0.5256,0.5238,0.5241,0.5144,0.5166,0.5154,0.5124,0.5027,0.5023,0.502,0.5003,0.4996,0.4989,0,0,0,0,0,0,0.5424,0.5392,0.5395,0.5341,0.5314,0.5282,0.5254,0.5256,0.5223,0.5225,0.5212,0.5204,0.515,0.5132,0.5158,0.5066,0.5087,0.5081,0.5079,0.5071,0.5066,0.507,0.5172,0,0,0,0,0,0.5415,0.5382,0.5355,0.5309,0.5296,0.5277,0.5257,0.5252,0.5222,0.521,0.5188,0.5158,0.512,0.5095,0.5059,0.4999,0.4989,0.4972,0.4967,0.4962,0.4956,0.492,0.4911,0.5004,0.5004,0.5005,0,0,0.5394,0.5373,0.5352,0.5306,0.5284,0.5248,0.5268,0.5228,0.52,0.5204,0.5152,0.5135,0.51,0.5043,0.5017,0.5026,0.4928,0.4957,0.4954,0.4949,0.4915,0.4906,0.4898,0.5002,0.5002,0.5003,0,0,0.5338,0.532,0.5279,0.5258,0.5226,0.5214,0.5205,0.5173,0.5162,0.5111,0.5112,0.5078,0.5014,0.4989,0.4968,0.4903,0.4904,0.4892,0.4861,0.4827,0.4819,0.4813,0.4787,0.4778,0.4886,0.4886,0.4886,0,0.5315,0.5263,0.5257,0.5217,0.5196,0.52,0.5157,0.5136,0.5093,0.5077,0.509,0.501,0.4987,0.4923,0.4907,0.4891,0.4877,0.4894,0.4821,0.4815,0.4808,0.4783,0.4774,0.4884,0.4885,0.4885,0.4885,0,0.5235,0.5199,0.5169,0.513,0.5106,0.5064,0.505,0.5026,0.5024,0.501,0.4957,0.493,0.4888,0.4873,0.487,0.4808,0.4815,0.4825,0.4845,0.4798,0.4774,0.4765,0.4882,0.4883,0.4883,0.4884,0,0,0.5164,0.5124,0.5113,0.5094,0.5061,0.5031,0.499,0.4951,0.4929,0.49,0.4863,0.4809,0.4818,0.4794,0.4788,0.4759,0.4706,0.4772,0.4771,0.4758,0.4633,0.4623,0.4612,0.4708,0.4706,0.4705,0.4635,0,0.5102,0.5031,0.5025,0.4959,0.4924,0.4928,0.4892,0.4866,0.4852,0.4819,0.4803,0.4765,0.4781,0.4766,0.4738,0.4718,0.468,0.4724,0.467,0.4668,0.4675,0.46,0.459,0.4525,0.4626,0.4624,0.4623,0,0.5019,0.4989,0.4921,0.4891,0.4876,0.4844,0.4807,0.4776,0.4746,0.4738,0.4713,0.4711,0.4666,0.4691,0.4628,0.4658,0.4636,0.4623,0.462,0.4612,0.464,0.4586,0.4504,0.4493,0.4609,0.461,0.4611,0,0.497,0.4913,0.4864,0.4849,0.4814,0.4791,0.4775,0.4747,0.4724,0.4692,0.4676,0.4638,0.4616,0.4587,0.4574,0.4594,0.451,0.4535,0.4499,0.4499,0.4478,0.4479,0.4387,0.447,0.447,0.447,0.4471,0,0.4899,0.4856,0.4842,0.4811,0.4763,0.4757,0.4708,0.4693,0.4668,0.4633,0.4636,0.4602,0.4589,0.4553,0.4543,0.449,0.4481,0.4472,0.4468,0.4469,0.447,0.4452,0.4454,0.4468,0.4468,0.4469,0.4469,0,0.4834,0.4824,0.477,0.4743,0.4735,0.47,0.4675,0.4644,0.4633,0.4588,0.4578,0.4558,0.4516,0.4501,0.445,0.4443,0.438,0.4383,0.4391,0.4389,0.4353,0.4355,0.4244,0.4227,0.4324,0.4323,0.4323,0,0.4787,0.4755,0.4724,0.4702,0.4686,0.465,0.4627,0.4619,0.4594,0.4558,0.4531,0.4491,0.4457,0.4389,0.4368,0.4329,0.4328,0.4292,0.4322,0.4323,0.4323,0.4324,0.4319,0.4285,0.4284,0.4283,0.4282,0,0.4704,0.4701,0.4669,0.4634,0.4607,0.4579,0.4552,0.4533,0.4521,0.4493,0.4451,0.4425,0.4373,0.4331,0.4291,0.4272,0.4273,0.4274,0.4263,0.4261,0.4265,0.4259,0.4371,0.4275,0.4276,0.4277,0.4277,0.4277,0.4645,0.4615,0.4589,0.4553,0.4532,0.4507,0.4476,0.4462,0.4427,0.4386,0.4384,0.4337,0.4308,0.4254,0.4234,0.4196,0.4205,0.419,0.4186,0.4181,0.4177,0.4275,0.4189,0.4189,0.4189,0.4189,0.419,0,0.4559,0.4543,0.451,0.4472,0.4443,0.4452,0.4422,0.4396,0.4356,0.433,0.4297,0.4248,0.4207,0.4185,0.4144,0.4118,0.4117,0.4107,0.4106,0.4101,0.4172,0.4184,0.4108,0.4108,0.4108,0.4108,0.4108,0.4108,0.451,0.446,0.4454,0.4393,0.4377,0.4334,0.4316,0.4291,0.427,0.4216,0.4183,0.417,0.4144,0.4101,0.4063,0.4058,0.4041,0.4029,0.4023,0.4088,0.4097,0.4105,0.4116,0.4026,0.4026,0.3955,0.3954,0.3954]},{"header":{"parameterUnit":"m.s-1","parameterCategory":1,"la1":30.2991,"la2":30.254,"lo1":-89.0895,"lo2":-89.0444,"dy":0.0017,"dx":0.0017,"nx":28,"ny":28,"refTime":"2023-09-09T21:00:00:Z","depth":0,"parameterNumber":3,"parameterNumberName":"V-component_of_WINDS"},"data":[0,0,0,0,0,0,0,0,0,0,0,0,0,0,0,0,0,0,0,0,0,0,0,0,0,0,0,0,0,0,0,0,0,0,0,0,0,0,0,0,0,0,0,0,0,0,0,0,0,0,0,0,0,0,0,0,0,0,-3.4781,-3.4783,0,-3.4892,-3.4893,-3.4894,-3.4875,-3.4873,-3.4871,-3.4869,-3.4983,-3.4988,-3.4993,0,0,0,0,0,0,0,0,0,0,0,0,0,-3.4555,-3.456,-3.4781,-3.4783,-3.4784,-3.4891,-3.4893,-3.4894,-3.4875,-3.4873,-3.4871,-3.4868,-3.4982,-3.4987,-3.4993,0,0,0,0,0,0,0,0,0,0,0,0,0,-3.4658,-3.4561,-3.4781,-3.4787,-3.4789,-3.4891,-3.4893,-3.4895,-3.4876,-3.4873,-3.487,-3.4867,-3.498,-3.4987,-3.4994,-3.5097,0,0,-3.5016,-3.5019,0,0,0,0,0,0,0,0,-3.4653,-3.4667,-3.4785,-3.4787,-3.4789,-3.4867,-3.4855,-3.4963,-3.4876,-3.4843,-3.4869,-3.4866,-3.4947,-3.4957,-3.4984,-3.5102,-3.5107,-3.5017,-3.5021,-3.5024,-3.5026,0,0,0,0,0,0,0,-3.4646,-3.4662,-3.4825,-3.4787,-3.4789,-3.4785,-3.4797,-3.4875,-3.491,-3.4846,-3.4844,-3.4858,-3.4947,-3.4977,-3.4986,-3.5109,-3.5017,-3.5023,-3.5027,-3.503,-3.5319,-3.5322,0,0,0,0,0,0,-3.4636,-3.4656,-3.4821,-3.4828,-3.4712,-3.4792,-3.4804,-3.4845,-3.4909,-3.4916,-3.486,-3.4856,-3.4966,-3.4978,-3.499,-3.5116,-3.5024,-3.5031,-3.5035,-3.5315,-3.5319,-3.5323,0,0,0,0,0,0,-3.4632,-3.4651,-3.4817,-3.4742,-3.4763,-3.4799,-3.4844,-3.4848,-3.4878,-3.492,-3.4926,-3.4884,-3.4964,-3.498,-3.5071,-3.5119,-3.5034,-3.5041,-3.5312,-3.5317,-3.5321,-3.5367,0,0,0,0,0,0,-3.4625,-3.465,-3.4689,-3.4743,-3.4767,-3.4895,-3.4847,-3.4853,-3.489,-3.4886,-3.4944,-3.495,-3.4963,-3.506,-3.5078,-3.5128,-3.5047,-3.5307,-3.5314,-3.532,-3.5361,-3.5373,-3.5383,0,0,0,0,0,-3.4617,-3.4697,-3.4691,-3.4711,-3.4816,-3.4898,-3.4912,-3.4924,-3.4894,-3.4934,-3.4961,-3.4949,-3.5111,-3.5069,-3.509,-3.5142,-3.5304,-3.5312,-3.5319,-3.5357,-3.5371,-3.5383,0,0,0,0,0,0,-3.4648,-3.4704,-3.4698,-3.4798,-3.4843,-3.4895,-3.4945,-3.4939,-3.4994,-3.4988,-3.5002,-3.5015,-3.5107,-3.5134,-3.5086,-3.5246,-3.5204,-3.5215,-3.5225,-3.5239,-3.525,-3.5241,-3.5053,0,0,0,0,0,-3.4666,-3.4728,-3.4774,-3.4858,-3.4881,-3.4909,-3.4945,-3.4951,-3.4999,-3.5018,-3.5052,-3.5099,-3.5161,-3.5201,-3.5261,-3.5365,-3.5378,-3.5412,-3.5422,-3.5431,-3.5441,-3.5499,-3.5515,-3.5347,-3.5347,-3.5347,0,0,-3.4705,-3.4744,-3.4781,-3.4865,-3.4901,-3.4965,-3.4926,-3.4994,-3.5042,-3.5029,-3.5117,-3.5143,-3.5197,-3.5295,-3.534,-3.532,-3.549,-3.544,-3.5447,-3.5453,-3.5509,-3.5524,-3.5539,-3.5353,-3.5352,-3.5351,0,0,-3.4808,-3.4843,-3.4917,-3.4954,-3.5009,-3.5028,-3.5045,-3.5098,-3.5115,-3.5204,-3.5195,-3.5252,-3.5358,-3.5397,-3.5431,-3.555,-3.554,-3.5569,-3.5625,-3.5682,-3.5695,-3.5707,-3.575,-3.5765,-3.5578,-3.5579,-3.5579,0,-3.4849,-3.4945,-3.4956,-3.5026,-3.5064,-3.5054,-3.513,-3.5165,-3.5237,-3.5263,-3.5239,-3.5373,-3.5408,-3.5516,-3.5545,-3.5573,-3.5594,-3.5562,-3.5692,-3.5704,-3.5715,-3.5756,-3.5772,-3.5582,-3.5581,-3.5581,-3.5581,0,-3.4993,-3.5059,-3.5113,-3.5182,-3.5225,-3.5298,-3.5321,-3.5363,-3.5366,-3.5387,-3.5478,-3.552,-3.5588,-3.5614,-3.5617,-3.5723,-3.5709,-3.5688,-3.5646,-3.5734,-3.5773,-3.5789,-3.5586,-3.5585,-3.5584,-3.5583,0,0,-3.5118,-3.5193,-3.5213,-3.5245,-3.5305,-3.5357,-3.5429,-3.5495,-3.5532,-3.5582,-3.5643,-3.5734,-3.5716,-3.5754,-3.5761,-3.5811,-3.5903,-3.5785,-3.5786,-3.5806,-3.6024,-3.6039,-3.6057,-3.5898,-3.5901,-3.5903,-3.6019,0,-3.5228,-3.5355,-3.5368,-3.5482,-3.5544,-3.5536,-3.56,-3.5644,-3.5666,-3.5722,-3.5747,-3.5811,-3.5782,-3.5805,-3.5854,-3.5882,-3.5947,-3.5873,-3.5956,-3.5958,-3.5943,-3.6077,-3.6093,-3.62,-3.6035,-3.6037,-3.6039,0,-3.5372,-3.5426,-3.5546,-3.5599,-3.5625,-3.5682,-3.5744,-3.5797,-3.5848,-3.586,-3.5903,-3.5904,-3.598,-3.5935,-3.604,-3.5989,-3.6024,-3.6043,-3.6047,-3.6055,-3.6004,-3.6089,-3.6235,-3.6251,-3.6063,-3.6061,-3.6059,0,-3.5452,-3.5555,-3.564,-3.5667,-3.573,-3.5771,-3.5799,-3.5846,-3.5885,-3.594,-3.5966,-3.6029,-3.6063,-3.6112,-3.6131,-3.6096,-3.6235,-3.6191,-3.6248,-3.6248,-3.6278,-3.6275,-3.6431,-3.63,-3.6299,-3.6299,-3.6299,0,-3.5572,-3.5647,-3.5677,-3.573,-3.5813,-3.5827,-3.5909,-3.5936,-3.5978,-3.6036,-3.6034,-3.6089,-3.6109,-3.6168,-3.6183,-3.6268,-3.6283,-3.6296,-3.6299,-3.6296,-3.6295,-3.6319,-3.6312,-3.6303,-3.6302,-3.6301,-3.6301,0,-3.5676,-3.5699,-3.5792,-3.5844,-3.5859,-3.5918,-3.5963,-3.6014,-3.6036,-3.6109,-3.6128,-3.6162,-3.623,-3.6253,-3.6337,-3.6347,-3.6446,-3.6442,-3.6429,-3.6429,-3.6485,-3.648,-3.6662,-3.6687,-3.6539,-3.654,-3.6542,0,-3.5751,-3.5808,-3.5867,-3.5905,-3.5935,-3.5997,-3.6037,-3.6054,-3.6096,-3.6158,-3.6202,-3.627,-3.6326,-3.6436,-3.6469,-3.6533,-3.6531,-3.6591,-3.6541,-3.6536,-3.6533,-3.6529,-3.6535,-3.66,-3.6601,-3.6603,-3.6604,0,-3.5883,-3.5892,-3.595,-3.6012,-3.606,-3.611,-3.6158,-3.619,-3.6214,-3.6261,-3.6331,-3.6374,-3.646,-3.6528,-3.6593,-3.6623,-3.6618,-3.6619,-3.6636,-3.6634,-3.6624,-3.663,-3.6455,-3.6615,-3.6614,-3.6613,-3.6612,-3.6612,-3.5975,-3.6026,-3.6075,-3.6139,-3.6177,-3.6223,-3.6273,-3.6301,-3.636,-3.643,-3.6437,-3.6513,-3.6563,-3.665,-3.6683,-3.6744,-3.6727,-3.6751,-3.6757,-3.6763,-3.6767,-3.6614,-3.6755,-3.6755,-3.6755,-3.6755,-3.6754,0,-3.6107,-3.6139,-3.6198,-3.6265,-3.6316,-3.6307,-3.636,-3.6403,-3.647,-3.6517,-3.6571,-3.6653,-3.6719,-3.6757,-3.6823,-3.6864,-3.6864,-3.6881,-3.6878,-3.6886,-3.6778,-3.6757,-3.6881,-3.6881,-3.6881,-3.6881,-3.688,-3.688,-3.6182,-3.6267,-3.6282,-3.6386,-3.6417,-3.6491,-3.6522,-3.6564,-3.6602,-3.6692,-3.6747,-3.6771,-3.6815,-3.6885,-3.6945,-3.6955,-3.698,-3.6999,-3.7007,-3.6906,-3.6893,-3.6881,-3.6861,-3.7004,-3.7004,-3.711,-3.7111,-3.7111]}]]